Regional Weather Roundup
Issued by NWS

Home | Current Version | Previous Version | Text Only | Print | Product List | Glossary Off
Versions: 1 2 3 4 5 6 7 8 9 10 11 12 13 14 15 16 17 18 19 20 21 22 23 24 25 26 27

000
ASUS45 KBOU 171207
RWRCO

WEATHER ROUNDUP FOR COLORADO
NATIONAL WEATHER SERVICE DENVER/BOULDER CO
600 AM MDT TUE OCT 17 2017

NOTE: "FAIR" INDICATES FEW OR NO CLOUDS BELOW 12000 FEET WITH NO
SIGNIFICANT WEATHER AND/OR OBSTRUCTIONS TO VISIBILITY.

COZ001>005-013-030-031-171300-
...NORTHWEST COLORADO...

CITY           SKY/WX    TMP DP  RH WIND       PRES   REMARKS
CRAIG          FAIR      19  13  77 CALM      30.41R
HAYDEN         FAIR      33  11  39 E12       30.41S WCI  24
MEEKER         FAIR      24  14  65 NE5       30.41R WCI  18
RABBIT EARS PA FAIR      36   0  21 W6        30.53S
STEAMBOAT SPGS FAIR      28  10  47 CALM      30.42S
WALDEN         FAIR      21   9  58 E3        30.44S
$$

COZ006>008-011-171300-
...WEST CENTRAL VALLEYS...

CITY           SKY/WX    TMP DP  RH WIND       PRES   REMARKS
GRAND JUNCTION FAIR      32  12  43 E3        30.37R
MONTROSE       FAIR      31  16  54 S8        30.42S WCI  23
EAGLE          FAIR      24  13  62 CALM      30.50R
RIFLE          FAIR      28  15  58 CALM      30.42R
DELTA          FAIR      35  12  38 CALM      30.41S
NUCLA          FAIR      36   7  30 SE3       30.44S
$$

COZ017>023-064>068-171300-
...SOUTHWEST COLORADO...

CITY           SKY/WX    TMP DP  RH WIND       PRES   REMARKS
DURANGO        FAIR      25  15  66 N3        30.41S
CORTEZ         FAIR      26  15  63 NE8       30.39S WCI  18
PAGOSA SPRINGS FAIR      29  13  51 CALM      30.46S
TELLURIDE      NOT AVBL
WOLF CREEK PAS FAIR      32   5  32 SW10      30.66R WCI  24
$$

COZ009-010-012-014-032>034-037-058>063-171300-
...CENTRAL COLORADO...

CITY           SKY/WX    TMP DP  RH WIND       PRES   REMARKS
ASPEN          FAIR      27  10  49 CALM      30.45S
BUENA VISTA    FAIR      28   6  39 W5        30.45S WCI  23
COPPER MTN     FAIR      37 -18   8 W5        30.60S
BERTHOUD PASS  FAIR      27  18  69 NW21      30.58S WCI  13
COTTONWOOD PAS FAIR      46  -8  10 W14G21    30.50S
GUNNISON       FAIR      18   8  65 CALM      30.53R
KREMMLING      FAIR      23  16  74 CALM      30.50S
LEADVILLE      FAIR      21  -2  36 CALM      30.50F
MONARCH PASS   FAIR      32  -4  21 W24       30.69S WCI  19
SALIDA         NOT AVBL
SUNLIGHT       FAIR      34  -8  16 SW8       30.59S WCI  27
WILKERSON PASS FAIR      37 -18   8 NW9G16    30.57R
$$

COZ069>075-171300-
...SAN LUIS VALLEY/SANGRE DE CRISTO MOUNTAINS...

CITY           SKY/WX    TMP DP  RH WIND       PRES   REMARKS
ALAMOSA        FAIR      24  17  74 CALM      30.44R
DEL NORTE      FAIR      37  12  36 W17       30.47R
LA VETA PASS   FAIR      39  14  35 MISG      30.59S
SAGUACHE       FAIR      32   9  37 N13       30.46S WCI  22
$$

COZ035-036-038>040-171300-
...NORTHERN COLORADO FRONT RANGE...

CITY           SKY/WX    TMP DP  RH WIND       PRES   REMARKS
DENVER INTL AP FAIR      49   9  19 SW10      30.25R
DMNS CITY PARK   N/A     44  13  28 SE10G16   30.26S
AURORA         PTCLDY    42  13  31 S8        30.27R
FRONT RANGE AP FAIR      37  21  52 SW12G17   30.26S
ERIE MUNI ARPT FAIR      31  25  79 S3        30.30F
BOULDER MUN AP FAIR      41  21  45 SW3       30.26R
CENTENNIAL     FAIR      45   9  23 SW9       30.28R
BROOMFIELD     FAIR      48  12  23 N3        30.27R
FORT COLLINS   FAIR      43  21  41 N5        30.25S
LONGMONT       FAIR      33  25  72 W3        30.27S
$$

COZ041-046-047-076>085-087-088-171300-
...PIKES PEAK/PALMER DIVIDE AND SOUTHERN FOOTHILLS...

CITY           SKY/WX    TMP DP  RH WIND       PRES   REMARKS
COLO. SPRINGS  FAIR      47  14  26 NW7       30.30S
A. F. ACADEMY  CLEAR     31  11  44 N13       30.32R WCI  21
SCHRIEVER AFB  FAIR      49  10  20 N8        30.30S
CHEYENNE MTN   FAIR      53   8  16 NW6       30.27S
ELLICOTT       FAIR     N/A N/A N/A E12       30.27S
FALCON         FAIR      38  13  35 NW6       30.34S
FORT CARSON    FAIR      44  12  26 NW10      30.27S
LIMON          FAIR      26  21  81 N5        30.26S WCI  20
MONUMENT HILL  FAIR      34  12  40 S8        30.35R WCI  27
CANON CITY     CLEAR     52   9  17 W5        30.28R
WALSENBURG     FAIR      48  14  25 W8        30.29S
TRINIDAD       FAIR      41  16  36 SW8       30.28R
$$

COZ042>045-048>051-090-091-171300-
...NORTHEAST COLORADO...

CITY           SKY/WX    TMP DP  RH WIND       PRES   REMARKS
GREELEY ARPT   FAIR      31  25  78 W5        30.25S WCI  26
AKRON          FAIR      41  19  41 W13       30.22R
BURLINGTON     FAIR      38  27  64 NW8       30.20R
WRAY           FAIR      34  28  80 W6        30.20S WCI  29
YUMA           FAIR      34  27  75 W9        30.20S WCI  26
STERLING       FAIR      28  27  93 S7        30.20S WCI  21
HOLYOKE        FAIR      37  30  75 W8        30.19R
FORT MORGAN    FAIR      32  23  70 CALM      30.22F
$$

COZ086-089-092>099-171300-
...SOUTHEAST COLORADO...

CITY           SKY/WX    TMP DP  RH WIND       PRES   REMARKS
PUEBLO         FAIR      40  20  44 W6        30.23S
LA JUNTA       FAIR      40  27  59 W13       30.21R
LAMAR          FAIR      33  28  81 SW9       30.17R WCI  25
SPRINGFIELD      N/A     45  30  55 NW13      30.17S
$$




USA.gov is the U.S. government's official web portal to all federal, state and local government web resources and services.